Vorticity
nan nan nan nan nan nan nan nan nan nan nan nan nan nan nan nan nan nan nan nan nan nan nan nan nan nan nan nan nan nan nan nan nan nan nan nan nan nan nan nan nan nan nan nan nan nan nan nan nan
nan 0 4 5 7 6 7 8 6 2 -1 9 12 6 5 4 6 9 13 14 9 7 7 9 6 4 4 4 4 5 4 4 4 4 3 3 3 3 4 4 3 2 2 3 4 5 4 5 nan
nan 1 8 4 5 4 6 6 -0 -0 12 15 8 6 8 10 6 9 16 13 8 7 6 10 7 5 5 4 4 5 5 5 4 3 3 4 4 5 5 5 4 3 3 3 5 5 5 5 nan
nan 5 5 8 4 4 3 -1 -2 6 14 8 6 6 6 7 7 12 14 9 7 7 6 9 7 5 6 5 5 5 5 5 5 4 5 4 4 4 5 5 5 5 3 4 4 4 7 8 nan
nan 7 4 5 5 6 5 0 5 6 5 7 7 8 7 7 6 11 11 7 6 5 6 9 9 6 6 6 6 6 5 6 6 6 5 4 4 6 8 8 7 7 6 6 6 5 5 7 nan
nan 7 8 5 3 4 8 11 9 10 6 8 8 6 7 7 8 10 9 6 5 7 6 9 9 5 6 6 7 6 6 6 6 6 5 6 8 9 9 9 8 9 10 8 6 5 5 6 nan
nan 6 5 6 8 9 13 13 12 8 4 7 8 7 6 8 12 11 9 7 6 7 6 7 8 7 6 6 6 7 6 7 7 7 7 8 9 8 8 9 9 9 8 9 7 6 5 6 nan
nan 5 5 4 8 7 11 10 9 5 3 8 8 1 1 12 17 11 9 7 6 8 7 6 7 7 6 7 8 7 6 6 7 8 8 7 5 6 7 9 9 8 9 9 9 8 7 6 nan
nan 6 4 4 3 3 2 5 1 4 5 2 -1 -2 6 12 10 6 6 6 5 6 7 7 7 6 7 8 7 7 7 6 7 8 6 4 4 6 7 7 8 7 8 10 11 9 11 9 nan
nan 5 4 2 1 2 -3 -1 1 2 1 2 2 6 5 4 5 5 6 5 4 5 6 5 7 7 5 7 9 7 7 7 7 7 6 5 6 6 7 9 8 8 7 7 10 11 14 16 nan
nan 7 2 -2 4 2 0 2 1 1 2 5 3 4 6 9 7 8 10 10 5 2 5 8 6 8 7 5 6 7 8 8 9 8 5 5 6 6 6 8 9 9 10 9 8 11 9 12 nan
nan 8 7 3 2 2 3 3 5 4 6 4 5 9 9 8 12 12 10 8 9 7 6 7 6 6 7 6 7 6 6 6 7 8 6 5 6 6 6 6 7 7 7 8 8 8 8 10 nan
nan 5 7 6 5 2 7 4 4 2 10 10 12 9 8 9 10 12 10 8 9 7 10 8 8 6 7 6 6 7 6 7 7 7 7 6 6 7 6 6 6 7 8 7 8 7 8 10 nan
nan 12 8 9 9 8 10 6 10 8 7 7 9 7 8 10 8 10 13 11 8 8 12 11 7 6 6 7 6 5 7 7 7 6 8 7 6 6 6 8 7 7 9 7 8 7 7 9 nan
nan 13 12 12 7 7 11 11 10 5 10 9 7 9 10 8 12 11 10 14 10 7 11 14 10 8 6 6 5 5 7 6 6 7 8 7 7 6 6 7 8 9 9 9 8 7 7 8 nan
nan 10 8 9 10 13 8 5 8 15 12 10 10 9 9 8 9 12 14 11 11 16 13 9 9 10 7 6 5 6 7 6 6 7 9 9 8 8 8 8 9 10 9 9 8 8 7 8 nan
nan 7 9 5 10 11 1 4 8 6 6 7 8 8 8 9 9 11 12 13 15 15 12 10 12 10 7 5 6 7 6 6 7 8 9 10 11 10 9 9 11 10 8 8 9 8 8 8 nan
nan 3 1 4 8 5 -0 3 3 4 6 7 7 8 8 9 7 13 16 18 17 12 11 10 11 9 6 5 7 7 7 8 8 9 9 10 11 12 9 9 9 9 8 9 9 8 7 8 nan
nan 6 5 8 7 7 5 7 8 7 5 8 7 7 8 9 11 15 20 18 12 10 10 9 9 6 5 6 6 7 8 9 9 9 9 11 10 11 9 9 9 9 9 9 8 8 9 8 nan
nan 5 7 6 5 5 8 6 5 8 11 10 9 9 9 9 12 15 16 15 11 9 9 9 8 6 4 6 6 8 9 8 8 10 12 12 10 10 9 9 10 9 9 9 9 8 7 9 nan
nan 7 5 0 4 5 13 12 9 9 9 8 8 10 11 9 13 15 14 12 12 13 10 8 8 6 6 6 5 7 8 9 10 9 10 11 13 12 12 10 8 9 8 9 11 11 9 8 nan
nan 8 7 8 6 5 5 13 12 9 5 6 9 12 13 14 14 13 14 13 13 11 11 8 7 7 6 5 6 6 6 8 9 9 10 10 11 13 13 10 8 8 9 10 11 10 9 8 nan
nan 16 17 12 5 8 4 7 8 9 10 12 14 12 13 14 19 17 13 13 14 11 8 7 8 7 7 5 6 7 7 8 8 10 9 8 9 10 11 10 9 9 9 10 10 9 7 8 nan
nan 10 11 10 14 12 11 8 4 12 9 10 11 12 10 14 20 17 14 13 11 9 7 8 8 6 7 7 7 7 8 8 8 9 9 9 8 9 10 10 9 9 10 10 9 9 9 6 nan
nan 1 6 10 10 11 18 10 8 8 10 6 5 6 11 17 15 13 11 11 10 8 6 7 7 7 7 7 7 8 9 6 8 10 11 11 10 9 10 9 9 9 10 10 10 10 10 8 nan
nan -4 0 6 7 10 18 10 11 8 13 15 8 9 13 14 11 12 12 10 9 7 6 7 7 7 7 7 8 8 7 7 9 11 10 11 11 10 9 8 9 9 10 9 10 10 10 9 nan
nan 8 -2 2 8 12 5 6 13 15 13 16 14 14 13 12 12 12 11 9 7 7 7 7 6 6 8 8 8 8 8 8 9 10 10 10 10 8 8 8 9 9 9 10 10 10 11 9 nan
nan 8 7 9 5 10 4 9 8 9 18 14 12 14 13 12 11 11 9 7 8 8 7 8 7 8 8 8 8 8 9 8 9 9 10 9 8 8 8 8 8 9 10 10 10 10 10 10 nan
nan 5 5 10 8 5 10 15 15 7 7 7 13 19 14 11 10 10 9 8 8 8 8 7 7 7 8 9 9 9 10 9 8 8 10 9 8 9 8 9 10 9 9 9 9 10 11 11 nan
nan nan nan nan nan nan nan nan nan nan nan nan nan nan nan nan nan nan nan nan nan nan nan nan nan nan nan nan nan nan nan nan nan nan nan nan nan nan nan nan nan nan nan nan nan nan nan nan nan
CAPE
0 0 0 0 0 0 0 0 0 0 0 0 0 0 0 0 7 0 5 44 10 0 8 1108 1839 1571 1239 1086 880 774 640 388 99 19 1 0 0 0 0 0 0 0 0 0 0 0 1 1 0
0 0 0 0 0 0 3 0 0 0 0 0 0 0 0 0 0 3 73 84 6 0 191 337 1968 1756 1570 1354 1251 1157 984 714 503 241 37 5 5 0 0 0 11 3 0 0 83 90 38 3 3
0 0 0 0 0 28 23 0 0 0 0 0 0 0 0 0 0 2 63 50 0 0 225 749 2098 1976 1807 1636 1597 1507 1384 1135 870 434 288 259 296 330 341 347 189 126 60 1 190 322 224 157 17
0 0 0 0 4 9 0 0 13 0 0 0 0 0 0 0 0 0 105 13 0 1 268 670 2113 2106 2011 1883 1832 1771 1722 1500 1245 785 704 607 812 815 647 452 442 391 298 221 236 90 421 349 313
0 1 0 0 0 0 0 24 0 0 0 0 0 0 0 0 0 14 159 64 12 10 338 563 2209 2263 2230 2155 2041 1918 1836 1652 1516 1255 968 1062 1235 878 735 712 513 441 442 387 326 511 584 658 446
0 0 0 0 0 0 0 0 0 0 0 0 0 0 0 0 0 71 183 197 62 104 255 731 2127 2381 2264 2215 2144 1977 1982 1886 1852 1712 1576 1436 1333 909 859 729 697 642 547 481 387 435 543 464 549
0 0 0 0 0 0 0 0 0 0 0 0 0 0 0 0 0 58 150 215 176 229 355 872 1315 2082 2281 2197 2110 2042 2095 2050 2024 1910 1785 1469 1034 723 225 92 102 169 287 364 346 214 357 439 285
0 0 0 0 0 0 0 0 0 0 0 0 0 0 0 0 0 85 125 152 123 283 420 737 1175 1350 1373 1452 2294 2276 2219 2080 2058 2133 1489 936 115 14 9 49 0 9 12 53 86 103 184 374 330
0 0 0 0 0 0 0 0 0 0 0 0 0 0 0 0 0 86 167 169 137 187 426 607 996 1391 1365 1146 1551 2239 1902 1863 1847 1185 845 296 83 33 0 0 0 0 4 25 39 43 72 95 88
0 0 0 0 0 0 0 0 0 0 0 0 0 0 0 0 0 35 168 147 162 234 288 424 1015 1216 1320 1173 1433 1386 1171 865 828 677 375 421 352 161 18 0 0 1 33 211 233 261 82 239 46
0 0 0 0 0 0 0 0 0 0 0 0 1 0 0 0 0 2 54 83 84 231 291 321 747 1218 1312 1206 1408 1432 1057 1003 923 557 505 432 278 144 65 49 97 67 2 4 9 10 4 64 180
0 0 0 0 0 0 0 0 0 0 0 0 1 0 0 0 0 0 5 82 94 192 299 456 665 1058 1389 1180 1165 941 808 734 516 466 567 561 477 298 223 69 144 131 7 53 95 64 90 188 236
0 0 0 0 0 0 0 0 0 0 0 0 0 0 0 0 0 0 0 21 86 139 210 485 720 954 1190 1125 799 713 583 430 393 490 493 565 559 588 409 347 335 296 40 264 336 173 147 202 282
0 0 0 0 0 0 0 0 0 0 0 1 0 0 0 0 0 0 0 0 22 95 90 169 596 1003 961 802 702 570 612 479 543 451 449 445 482 513 445 407 458 802 585 387 354 127 153 119 213
0 0 0 0 0 0 0 0 0 0 0 0 0 0 0 0 0 0 0 0 6 14 16 48 493 858 861 742 602 467 462 574 596 575 597 403 478 554 644 919 732 859 246 363 255 224 237 192 167
0 0 0 0 0 0 0 0 0 0 0 0 0 0 0 0 0 0 0 0 1 3 0 2 73 621 844 689 513 475 529 602 575 541 539 530 617 762 834 892 763 540 367 528 310 263 185 167 188
0 0 0 0 0 0 0 0 0 0 0 0 0 0 0 0 0 0 0 0 0 0 0 3 143 529 673 578 503 574 631 531 479 546 623 709 747 737 809 832 421 455 477 184 327 295 228 199 229
0 0 0 0 0 0 0 0 0 0 0 0 0 0 0 0 0 0 0 0 0 0 0 142 241 580 541 460 363 387 404 472 569 671 768 805 858 708 642 471 195 296 187 176 206 365 271 272 303
0 0 0 0 0 0 0 0 0 0 0 0 0 0 0 0 0 0 0 0 0 0 0 247 476 549 414 182 206 365 484 545 567 650 746 869 959 697 753 535 137 56 188 350 339 288 238 354 412
0 0 0 0 0 0 0 0 0 0 0 0 0 0 0 0 0 0 0 0 0 0 19 356 523 408 329 231 317 448 593 669 622 620 796 904 857 677 550 201 142 144 295 374 326 309 243 322 464
0 0 0 0 0 0 0 0 0 0 0 0 0 0 0 0 0 0 0 0 0 0 41 276 391 330 270 286 346 429 396 467 465 402 506 435 227 312 507 280 257 376 375 370 321 272 205 262 373
0 0 0 0 0 0 0 0 0 0 0 0 0 0 0 0 0 0 0 0 0 0 22 193 272 308 313 300 398 573 629 506 315 288 280 262 156 302 386 401 356 500 395 359 301 254 228 321 464
0 0 0 0 0 0 0 0 0 0 0 0 0 0 0 0 0 0 0 0 0 0 44 167 251 317 335 345 387 598 720 254 208 134 245 295 321 292 195 403 468 463 387 478 335 281 317 724 546
0 0 0 0 0 0 0 0 0 0 0 0 0 0 0 0 0 0 0 0 0 0 38 109 222 396 389 427 495 799 520 311 51 78 93 133 202 183 278 242 400 421 449 416 296 354 384 580 700
0 0 0 0 0 0 0 0 0 0 0 0 0 0 0 0 0 0 0 0 0 0 27 59 228 307 363 389 499 525 408 140 33 39 54 61 140 185 339 290 259 358 466 467 429 468 438 462 576
0 0 0 0 0 0 0 0 0 0 0 0 0 0 0 0 0 0 0 0 0 18 56 43 263 237 238 333 549 340 298 3 0 21 38 2 113 126 126 113 184 404 367 404 471 475 322 332 785
0 0 0 0 0 0 0 0 0 0 0 0 0 0 0 0 0 0 0 0 0 33 100 169 181 173 206 308 524 377 358 38 73 78 36 0 28 41 64 100 271 285 336 375 495 674 591 353 442
0 0 0 0 0 0 0 0 0 0 0 0 0 0 0 0 0 0 0 0 0 30 106 169 103 88 117 109 481 377 452 95 90 73 42 0 4 31 52 87 145 217 331 391 647 604 433 453 538
0 0 0 0 0 0 0 0 0 0 0 0 0 0 0 0 0 0 0 0 0 6 28 81 21 14 5 32 238 396 421 107 59 73 32 0 3 20 30 62 109 164 364 560 489 303 173 206 353
0 0 0 0 0 0 0 0 0 0 0 0 0 0 0 0 0 0 0 0 0 0 8 5 6 16 0 34 10 226 437 116 58 70 24 0 0 0 27 127 129 137 269 424 382 177 58 81 212